KB2KRJ Weather Reports


Display with metric or nautical units.
time (UTC)temp
F
wind
direction
speed
MPH
gust
MPH
rain 1hr
in
rain 24hr
in
rain mn
in
humidity
%
barometer
mb
20260507124558 46 97 2.0 7.0 0.00 0.10 0.00 60 1012.0
20260507123058 46 225 1.0 4.0 0.00 0.10 0.00 61 1012.0
20260507121611 45 196 0.0 5.0 0.00 0.10 0.00 66 1012.1
20260507120100 44 196 1.0 6.0 0.00 0.10 0.00 67 1012.1
20260507114634 43 209 1.0 3.0 0.00 0.10 0.00 69 1012.0
20260507113054 43 200 0.0 3.0 0.00 0.10 0.00 70 1011.9
20260507111558 42 221 0.0 4.0 0.00 0.10 0.00 70 1011.8
20260507110051 42 107 0.0 2.0 0.00 0.10 0.00 68 1011.7
20260507104549 42 212 0.0 3.0 0.00 0.10 0.00 68 1011.6
20260507103047 42 316 0.0 3.0 0.00 0.10 0.00 65 1011.2
20260507101546 43 298 0.0 2.0 0.00 0.10 0.00 62 1011.1
20260507100040 44 292 0.0 2.0 0.00 0.10 0.00 62 1011.0
20260507094536 44 26 0.0 5.0 0.00 0.10 0.00 60 1010.8
20260507093034 45 22 0.0 2.0 0.00 0.10 0.00 60 1010.7
20260507091540 47 22 0.0 2.0 0.00 0.10 0.00 51 1010.5
20260507090035 47 15 0.0 2.0 0.00 0.10 0.00 48 1010.6
20260507084529 47 32 0.0 3.0 0.00 0.10 0.00 48 1010.7
20260507083032 47 114 0.0 3.0 0.00 0.10 0.00 48 1010.6
20260507081526 47 103 0.0 3.0 0.00 0.10 0.00 48 1010.6
20260507080026 47 77 0.0 3.0 0.00 0.10 0.00 46 1010.8
20260507074525 47 303 0.0 2.0 0.00 0.10 0.00 46 1010.9
20260507073024 47 355 0.0 2.0 0.00 0.10 0.00 47 1010.8
20260507071521 47 27 0.0 4.0 0.00 0.10 0.00 48 1010.5
20260507070120 48 34 0.0 7.0 0.00 0.10 0.00 49 1009.8
20260507064518 48 82 1.0 4.0 0.00 0.10 0.00 47 1009.9
20260507063018 48 49 0.0 2.0 0.00 0.10 0.00 45 1009.8
20260507061516 48 50 0.0 4.0 0.00 0.10 0.00 46 1009.8
20260507060014 48 57 0.0 3.0 0.00 0.10 0.00 46 1009.8
20260507054518 49 49 0.0 1.0 0.00 0.10 0.00 44 1009.8
20260507053012 49 53 0.0 2.0 0.00 0.10 0.00 43 1009.8
20260507051509 49 53 0.0 2.0 0.00 0.10 0.00 44 1009.6
20260507050006 49 46 0.0 2.0 0.00 0.10 0.00 42 1009.7
20260507044505 50 56 0.0 0.0 0.00 0.10 0.00 40 1009.9
20260507043008 50 55 0.0 1.0 0.00 0.10 0.00 39 1010.2
20260507041601 50 55 0.0 2.0 0.00 0.10 0.00 41 1010.0
20260507040101 50 55 0.0 3.0 0.01 0.10 0.00 41 1010.2
20260507034557 50 190 0.0 2.0 0.01 0.10 0.10 38 1009.6
20260507033053 51 186 0.0 2.0 0.01 0.10 0.10 37 1009.9
20260507031544 51 186 0.0 4.0 0.01 0.10 0.10 36 1009.9
20260507030040 51 167 0.0 4.0 0.00 0.09 0.09 32 1010.1
20260507024535 51 86 0.0 2.0 0.00 0.09 0.09 31 1010.3
20260507023031 51 86 0.0 3.0 0.00 0.09 0.09 29 1010.1
20260507021527 51 82 0.0 2.0 0.00 0.09 0.09 28 1010.2
20260507020028 51 51 0.0 1.0 0.00 0.09 0.09 26 1010.1
20260507014527 52 63 0.0 4.0 0.00 0.09 0.09 25 1010.2
20260507013032 52 39 0.0 1.0 0.00 0.09 0.09 26 1009.9
20260507011512 52 39 0.0 1.0 0.00 0.09 0.09 28 1009.8
20260507010005 52 40 0.0 3.0 0.00 0.09 0.09 28 1009.7
20260507004607 52 46 0.0 3.0 0.00 0.09 0.09 26 1009.5
20260507003057 52 254 0.0 3.0 0.00 0.09 0.09 24 1009.2
20260507001552 52 5 0.0 0.0 0.00 0.09 0.09 23 1009.0
20260507000048 52 5 0.0 4.0 0.00 0.09 0.09 24 1008.9
20260506234548 52 126 0.0 9.0 0.00 0.09 0.09 24 1008.5
20260506233046 53 165 0.0 4.0 0.00 0.09 0.09 21 1008.4
20260506231534 54 131 0.0 3.0 0.00 0.09 0.09 17 1007.9
20260506230029 55 295 0.0 3.0 0.00 0.09 0.09 15 1007.7
20260506224525 55 24 0.0 2.0 0.00 0.09 0.09 15 1007.3
20260506223021 56 79 0.0 1.0 0.00 0.09 0.09 15 1006.6
20260506221516 57 29 0.0 5.0 0.01 0.09 0.09 16 1006.4
20260506220012 59 76 2.0 14.0 0.01 0.09 0.09 13 1006.1
20260506214509 63 142 0.0 0.0 0.01 0.09 0.09 2 1004.9
20260506213003 63 142 0.0 1.0 0.01 0.09 0.09 2 1004.7
20260506211600 63 142 0.0 3.0 0.00 0.08 0.08 2 1004.7
20260506210054 63 138 0.0 0.0 0.00 0.08 0.08 2 1004.6
20260506204550 63 122 0.0 1.0 0.00 0.08 0.08 2 1004.5
20260506203045 64 121 0.0 1.0 0.00 0.08 0.08 2 1004.5
20260506201542 64 168 0.0 1.0 0.00 0.08 0.08 100 1004.4
20260506200037 64 187 0.0 0.0 0.01 0.08 0.08 100 1004.6
20260506194532 64 155 0.0 0.0 0.01 0.08 0.08 100 1004.6
20260506193028 64 223 0.0 3.0 0.01 0.08 0.08 100 1004.8
20260506191524 64 154 0.0 2.0 0.01 0.08 0.08 100 1004.9
20260506190019 64 149 0.0 3.0 0.00 0.07 0.07 1 1005.0
20260506184529 63 127 0.0 2.0 0.01 0.07 0.07 2 1005.1
20260506183019 63 154 0.0 2.0 0.01 0.07 0.07 3 1005.2
20260506181513 63 145 0.0 3.0 0.01 0.07 0.07 3 1005.3
20260506180002 63 84 0.0 3.0 0.01 0.07 0.07 3 1005.4
20260506174557 63 51 0.0 4.0 0.00 0.06 0.06 3 1005.3
20260506173100 63 117 1.0 7.0 0.01 0.06 0.06 3 1005.2
20260506171549 63 130 1.0 8.0 0.01 0.06 0.06 3 1005.3
20260506170048 63 108 1.0 11.0 0.02 0.06 0.06 4 1005.4
20260506164543 63 134 0.0 5.0 0.02 0.06 0.06 5 1005.6
20260506163039 62 128 0.0 3.0 0.01 0.05 0.05 5 1005.9
20260506161532 62 90 1.0 5.0 0.02 0.05 0.05 6 1006.1
20260506160026 62 15 1.0 6.0 0.01 0.04 0.04 7 1006.3
20260506154522 62 19 0.0 0.0 0.02 0.04 0.04 8 1006.5
20260506153022 61 17 0.0 0.0 0.02 0.04 0.04 10 1006.7
20260506151519 61 17 0.0 0.0 0.02 0.03 0.03 13 1006.8
20260506150016 60 17 0.0 0.0 0.03 0.03 0.03 15 1006.8
20260506144519 60 17 0.0 0.0 0.02 0.02 0.02 19 1007.1
20260506143015 60 17 0.0 0.0 0.02 0.02 0.02 24 1007.3
20260506141513 60 17 0.0 0.0 0.01 0.01 0.01 28 1007.4
20260506140015 60 17 0.0 0.0 0.00 0.00 0.00 33 1007.7
20260506134510 59 17 0.0 0.0 0.00 0.00 0.00 39 1007.3
20260506133009 59 17 0.0 0.0 0.00 0.00 0.00 40 1007.2
20260506131509 58 17 0.0 0.0 0.00 0.00 0.00 40 1007.3
20260506130009 58 17 0.0 0.0 0.00 0.00 0.00 37 1007.0